Change the Weather History Date:

Monday, September 17, 2012

  Actual Average Record
Temperature  
Mean Temperature 58 °F -  
Max Temperature 61 °F - - ()
Min Temperature 54 °F - - ()
Degree Days  
Heating Degree Days 8    
Growing Degree Days 8 (Base 50)    
Moisture  
Dew Point 53 °F    
Average Humidity 83    
Maximum Humidity 94    
Minimum Humidity 65    
Precipitation  
Precipitation 0.00 in - - ()
Sea Level Pressure  
Sea Level Pressure 29.82 in    
Wind  
Wind Speed 17 mph ()    
Max Wind Speed 24 mph    
Max Gust Speed 30 mph    
T = Trace of Precipitation, MM = Missing Value Source: Averaged Metar Reports

Daily Weather History Graph

Daily Weather History Graph

Search for Another Location

Airport or City:

Trip Planner

Search our weather history database for the weather conditions in past years. The results will help you decide how hot, cold, wet, or windy it might be!

Date:

Astronomy

Sep. 17, 2012 Rise Set
Actual Time 6:46 AM NDT 7:13 PM NDT
Civil Twilight 6:15 AM NDT 7:43 PM NDT
Nautical Twilight 5:39 AM NDT 8:19 PM NDT
Astronomical Twilight 5:01 AM NDT 8:57 PM NDT
Moon 8:40 AM NDT (9/17) 7:37 PM NDT (9/17)
Length of Visible Light 13h 27m
Length of Day
12h 26m
Waxing Crescent, 3% of the Moon is Illuminated
Sep 17
Waxing Crescent
Sep 22
First Quarter
Sep 30
Full
Oct 8
Last Quarter
Oct 15
New

Hourly Weather History & Observations

Time (NDT) Temp. Dew Point Humidity Pressure Visibility Wind Dir Wind Speed Gust Speed Precip Events Conditions
12:30 AM 60 °F 58 °F 92% 29.60 in - South 18.4 mph - -  
1:30 AM 58.8 °F 57.2 °F 94% 29.62 in - SW 23.0 mph 29.9 mph N/A   Unknown
2:30 AM 58.8 °F 57.2 °F 94% 29.66 in - SW 20.7 mph 27.6 mph N/A   Unknown
3:30 AM 58 °F 55 °F 88% 29.69 in - SW 24.2 mph - -  
3:30 AM 57.7 °F 55.4 °F 92% 29.69 in - SW 24.2 mph - N/A   Unknown
4:30 AM 56.8 °F 54.5 °F 92% 29.71 in - WSW 19.6 mph - N/A   Unknown
5:30 AM 56.1 °F 52.3 °F 87% 29.73 in - WSW 19.6 mph - N/A   Unknown
6:30 AM 57 °F 48 °F 65% 29.76 in - West 20.7 mph - -  
6:30 AM 56.8 °F 48.4 °F 73% 29.76 in - West 20.7 mph - N/A   Unknown
7:30 AM 56.1 °F 50.7 °F 82% 29.78 in - WSW 15.0 mph - N/A   Unknown
8:30 AM 56.8 °F 52.7 °F 86% 29.80 in - WSW 15.0 mph - N/A   Unknown
9:30 AM 56 °F 52 °F 82% 29.82 in - WSW 15.0 mph - -  
9:30 AM 56.1 °F 52.0 °F 86% 29.82 in - WSW 15.0 mph - N/A   Unknown
11:30 AM 59.5 °F 53.4 °F 80% 29.84 in - West 13.8 mph - N/A   Unknown
12:30 PM 58 °F 53 °F 77% 29.85 in - SW 19.6 mph - -  
1:30 PM 58.6 °F 52.9 °F 81% 29.84 in - SW 18.4 mph - N/A   Unknown
2:30 PM 59.2 °F 52.9 °F 80% 29.84 in - WSW 18.4 mph - N/A   Unknown
3:30 PM 59 °F 53 °F 74% 29.85 in - SW 15.0 mph - -  
3:30 PM 59.0 °F 52.9 °F 80% 29.85 in - SW 15.0 mph - N/A   Unknown
4:30 PM 59.5 °F 53.2 °F 80% 29.86 in - SW 11.5 mph - N/A   Unknown
5:30 PM 59.7 °F 52.3 °F 77% 29.87 in - WSW 16.1 mph - N/A   Unknown
6:30 PM 58 °F 52 °F 75% 29.88 in - WSW 17.3 mph - -  
6:30 PM 58.5 °F 52.2 °F 80% 29.88 in - WSW 17.3 mph - N/A   Unknown
7:30 PM 58.1 °F 51.8 °F 80% 29.91 in - West 16.1 mph - N/A   Unknown
8:30 PM 58.1 °F 52.3 °F 81% 29.94 in - West 18.4 mph - N/A   Unknown
9:30 PM 57 °F 53 °F 81% 29.96 in - WSW 16.1 mph - -  
9:30 PM 57.0 °F 52.9 °F 86% 29.96 in - WSW 16.1 mph - N/A   Unknown
10:30 PM 56.3 °F 53.1 °F 89% 29.98 in - WSW 12.7 mph - N/A   Unknown
11:30 PM 56.3 °F 53.2 °F 89% 29.99 in - WSW 13.8 mph - N/A   Unknown